Погода в Моллеме

Индия     15°13′32″N   74°09′37″E
темп.,
°C
ветер,
м/с
пор.,
м/с
влажн.,
%
обл.,
%
осадки,
мм/ч
давл.,
гПа
погр.,
м
28 сентября, вт
вт2823:30+21зюз1190100 0.0 100778
02:30+21ююз1294100 0.0 100593
05:30+21юз1298100 0.4 1006120
08:30+22юз1197100 1.5 100894
11:30+23ююз1394100 2.0 1008209
14:30+23юз2593100 1.0 1006344
17:30+22з1498100 2.6 1006267
20:30+22зюз28100100 6.3 1008618
29 сентября, ср
ср2923:30+22юз1599100 11.4 1009279
02:30+22юз1499100 6.4 1007202
05:30+22юз149999 11.5 1007249
08:30+23юз279792 3.9 1009492
11:30+25юз389380 7.5 1009867
14:30+25юз389592 3.9 1007813
17:30+23юз389784 7.8 1008611
20:30+22ю1399100 4.5 1010110
30 сентября, чт
чт3023:30+22ю1299100 7.8 101053
02:30+22ю1299100 2.8 100865
05:30+22ююв1199100 3.8 100936
08:30+24ююз249351 0.3 1011422
11:30+26зюз358490 2.2 1010794
14:30+26зюз348773 3.2 1008694
17:30+24зюз139540 5.3 1008306
20:30+22ююв119799 0.8 101117
1 октября, пт
пт123:30+22юв1197100 0.8 101116
02:30+21юв1197100 0.0 100916
05:30+21вюв119782 0.0 100914
08:30+24ююв019077 0.0 1010221
11:30+28з227058 0.1 10091098
14:30+27з238196 1.8 1007787
17:30+24з139487 4.7 1008284
20:30+23юз009835 0.3 101020
2 октября, сб
сб223:30+22вюв009881 0.3 101016
02:30+22в009822 0.0 100716
05:30+22в119833 0.0 100814
08:30+25ссв019034 0.0 1010303
11:30+29зсз226879 0.0 10081173
14:30+27з238239 1.6 1006681
17:30+25зсз239477 4.6 1007275
20:30+23зсз119772 0.5 100957